Hourly Data Report for September 25, 2020

TORONTO CITY
ONTARIO
Current Station Operator: ECCC - MSC

43°40'00.000" N
79°24'00.000" W
112.50 m
6158355
71508
XTO

Download Data

Hourly Data (September 2020)
Hourly Data Report for September 25, 2020
TIME
LST
Temp Definition
°C
Dew Point Definition
°C
Rel Hum Definition
%
Precip. Amount Definition
mm

Wind Dir Definition
10's deg

Wind Spd Definition
km/h
Visibility Definition
km
Stn Press Definition
kPa
Hmdx Definition


Wind Chill Definition


Weather Definition


00:00 17.1 15.2 89 0.0       100.14     LegendNANA
01:00 16.7 14.7 88 0.0       100.15     LegendNANA
02:00 16.9 15.0 89 0.0       100.15     LegendNANA
03:00 16.7 13.8 83 0.0       100.17     LegendNANA
04:00 17.0 14.8 87 0.0       100.20     LegendNANA
05:00 17.0 14.6 86 0.0       100.27     LegendNANA
06:00 16.9 14.7 87 0.0       100.34     LegendNANA
07:00 16.9 14.9 88 0.0       100.39     LegendNANA
08:00 17.5 15.2 86 0.0       100.44     LegendNANA
09:00 18.2 15.1 82 0.0       100.48     LegendNANA
10:00 19.2 15.3 78 0.0       100.48     LegendNANA
11:00 20.0 15.2 74 0.0       100.48     LegendNANA
12:00 20.8 15.1 70 0.0       100.47 25   LegendNANA
13:00 21.8 14.5 63 0.0       100.40 25   LegendNANA
14:00 21.9 13.9 61 0.2       100.34 25   LegendNANA
15:00 22.9 14.1 58 0.0       100.29 26   LegendNANA
16:00 22.7 13.4 56 0.0       100.24 26   LegendNANA
17:00 22.1 12.6 55 0.0       100.21 25   LegendNANA
18:00 20.1 13.5 66 0.0       100.18     LegendNANA
19:00 18.9 14.3 75 0.0       100.23     LegendNANA
20:00 18.4 14.4 78 0.0       100.26     LegendNANA
21:00 18.4 14.1 76 0.0       100.24     LegendNANA
22:00 18.7 14.3 76 0.0       100.24     LegendNANA
23:00 18.1 14.2 78 0.0       100.20     LegendNANA

Notes on Data Quality.

Legend

  • E = Estimated
  • M = Missing
  • NA = Not Available*
  • [empty] = Indicates an unobserved value
Date modified: